TimeCDT,TemperatureF,Dew PointF,Humidity,Sea Level PressureIn,VisibilityMPH,Wind Direction,Wind SpeedMPH,Gust SpeedMPH,PrecipitationIn,Events,Conditions,WindDirDegrees,DateUTC
12:56 AM,80.1,77.0,90,30.03,10.0,SE,10.4,-,N/A,,Clear,140,2012-10-11 05:56:00
1:56 AM,80.1,78.1,94,30.03,10.0,SE,10.4,-,N/A,,Scattered Clouds,140,2012-10-11 06:56:00
2:56 AM,80.1,78.1,94,30.02,10.0,SSE,10.4,-,N/A,,Scattered Clouds,150,2012-10-11 07:56:00
3:15 AM,80.6,77.0,89,30.02,10.0,SE,11.5,-,N/A,,Mostly Cloudy,140,2012-10-11 08:15:00
3:40 AM,80.6,77.0,89,30.02,10.0,SE,10.4,-,N/A,,Scattered Clouds,140,2012-10-11 08:40:00
3:56 AM,80.1,77.0,90,30.02,10.0,SE,10.4,-,N/A,,Partly Cloudy,140,2012-10-11 08:56:00
4:56 AM,79.0,77.0,94,30.02,10.0,SE,8.1,-,N/A,,Clear,140,2012-10-11 09:56:00
5:56 AM,79.0,77.0,94,30.02,10.0,SE,9.2,-,N/A,,Clear,140,2012-10-11 10:56:00
6:56 AM,79.0,75.9,90,30.04,10.0,ESE,10.4,-,N/A,,Mostly Cloudy,120,2012-10-11 11:56:00
7:41 AM,80.6,77.0,89,30.05,9.0,SE,10.4,-,0.00,Rain,Light Rain,140,2012-10-11 12:41:00
7:56 AM,80.1,77.0,90,30.06,10.0,SE,11.5,-,0.00,,Mostly Cloudy,140,2012-10-11 12:56:00
8:16 AM,77.0,75.2,94,30.06,10.0,SSE,10.4,-,0.00,Rain,Light Rain,150,2012-10-11 13:16:00
8:24 AM,77.0,75.2,94,30.07,10.0,SE,10.4,-,0.00,,Mostly Cloudy,140,2012-10-11 13:24:00
8:44 AM,78.8,75.2,89,30.07,10.0,SSE,11.5,-,0.00,Rain,Light Rain,150,2012-10-11 13:44:00
8:56 AM,77.0,75.0,94,30.08,7.0,SE,10.4,-,0.00,Rain,Light Rain,140,2012-10-11 13:56:00
9:15 AM,78.8,75.2,89,30.08,10.0,SE,8.1,-,0.00,,Mostly Cloudy,130,2012-10-11 14:15:00
9:56 AM,81.0,79.0,94,30.09,10.0,SSE,11.5,-,0.00,,Mostly Cloudy,150,2012-10-11 14:56:00
10:56 AM,84.9,77.0,77,30.11,10.0,SE,16.1,-,0.01,,Mostly Cloudy,140,2012-10-11 15:56:00
11:56 AM,86.0,77.0,74,30.11,10.0,SE,20.7,-,N/A,,Mostly Cloudy,140,2012-10-11 16:56:00
12:56 PM,87.1,75.9,69,30.09,10.0,SE,19.6,26.5,N/A,,Scattered Clouds,140,2012-10-11 17:56:00
1:56 PM,86.0,75.0,70,30.07,10.0,SE,19.6,28.8,N/A,,Mostly Cloudy,140,2012-10-11 18:56:00
2:56 PM,86.0,73.9,67,30.06,10.0,SE,19.6,25.3,N/A,,Scattered Clouds,140,2012-10-11 19:56:00
3:56 PM,86.0,75.0,70,30.06,10.0,SE,20.7,25.3,N/A,,Scattered Clouds,130,2012-10-11 20:56:00
4:56 PM,84.0,73.9,72,30.05,10.0,SE,18.4,26.5,N/A,,Scattered Clouds,130,2012-10-11 21:56:00
5:56 PM,82.9,75.0,77,30.04,10.0,SE,16.1,23.0,N/A,,Scattered Clouds,130,2012-10-11 22:56:00
6:56 PM,81.0,75.0,82,30.04,10.0,SE,13.8,-,N/A,,Scattered Clouds,130,2012-10-11 23:56:00
7:56 PM,80.1,75.0,85,30.05,10.0,ESE,16.1,-,N/A,,Scattered Clouds,120,2012-10-12 00:56:00
8:56 PM,80.1,73.9,81,30.06,10.0,SE,17.3,24.2,N/A,,Partly Cloudy,130,2012-10-12 01:56:00
9:56 PM,79.0,73.9,84,30.09,10.0,ESE,15.0,-,N/A,,Clear,120,2012-10-12 02:56:00
10:56 PM,79.0,73.0,82,30.09,10.0,SE,13.8,-,N/A,,Clear,130,2012-10-12 03:56:00
11:56 PM,79.0,75.0,88,30.08,10.0,SE,12.7,-,N/A,,Clear,130,2012-10-12 04:56:00